Time,TemperatureF,DewpointF,PressureIn,WindDirection,WindDirectionDegrees,WindSpeedMPH,WindSpeedGustMPH,Humidity,HourlyPrecipIn,Conditions,Clouds,dailyrainin,SoftwareType,DateUTC
2013-02-05 00:00:00,30.0,26.3,29.91,NW,324,4.0,8.0,86,0.00,,---,0.01,VWS V14.01,2013-02-05 05:00:00,
2013-02-05 00:06:00,30.0,25.8,29.91,NNW,329,3.0,9.0,84,0.00,,---,0.00,VWS V14.01,2013-02-05 05:06:00,
2013-02-05 00:10:00,30.1,25.6,29.92,NNW,340,6.0,9.0,83,0.00,,---,0.00,VWS V14.01,2013-02-05 05:10:00,
2013-02-05 00:16:00,30.3,25.5,29.91,North,350,7.0,9.0,82,0.00,,---,0.00,VWS V14.01,2013-02-05 05:16:00,
2013-02-05 00:21:00,30.3,25.2,29.91,NNW,345,8.0,9.0,81,0.00,,---,0.00,VWS V14.01,2013-02-05 05:21:00,
2013-02-05 00:26:00,30.3,24.9,29.91,North,355,6.0,11.0,80,0.00,,---,0.00,VWS V14.01,2013-02-05 05:26:00,
2013-02-05 00:30:00,30.3,24.9,29.90,NNW,338,6.0,11.0,80,0.00,,---,0.00,VWS V14.01,2013-02-05 05:30:00,
2013-02-05 00:31:00,30.3,24.9,29.90,North,349,6.0,11.0,80,0.00,,---,0.00,VWS V14.01,2013-02-05 05:31:00,
2013-02-05 00:36:00,30.3,24.6,29.90,North,360,6.0,11.0,79,0.00,,---,0.00,VWS V14.01,2013-02-05 05:36:00,
2013-02-05 00:41:00,30.4,24.4,29.90,NNW,331,8.0,11.0,78,0.00,,---,0.00,VWS V14.01,2013-02-05 05:41:00,
2013-02-05 00:46:00,30.4,24.4,29.90,NNE,17,4.0,11.0,78,0.00,,---,0.00,VWS V14.01,2013-02-05 05:46:00,
2013-02-05 00:51:00,30.3,24.3,29.90,NNW,344,8.0,11.0,78,0.00,,---,0.00,VWS V14.01,2013-02-05 05:51:00,
2013-02-05 00:56:00,30.3,24.3,29.91,NNW,329,6.0,11.0,78,0.00,,---,0.00,VWS V14.01,2013-02-05 05:56:00,
2013-02-05 01:00:00,30.3,24.3,29.91,NNW,338,6.0,11.0,78,0.00,,---,0.00,VWS V14.01,2013-02-05 06:00:00,
2013-02-05 01:01:00,30.3,24.3,29.91,NNW,340,9.0,9.0,78,0.00,,---,0.00,VWS V14.01,2013-02-05 06:01:00,
2013-02-05 01:06:00,30.3,24.3,29.90,NNW,339,3.0,9.0,78,0.00,,---,0.00,VWS V14.01,2013-02-05 06:06:00,
2013-02-05 01:11:00,30.3,24.3,29.91,NNE,12,7.0,9.0,78,0.00,,---,0.00,VWS V14.01,2013-02-05 06:11:00,
2013-02-05 01:16:00,30.1,24.1,29.91,NNE,20,1.0,9.0,78,0.00,,---,0.00,VWS V14.01,2013-02-05 06:16:00,
2013-02-05 01:21:00,30.1,24.1,29.91,NNW,338,5.0,9.0,78,0.00,,---,0.00,VWS V14.01,2013-02-05 06:21:00,
2013-02-05 01:26:00,30.1,24.1,29.90,North,5,7.0,10.0,78,0.00,,---,0.00,VWS V14.01,2013-02-05 06:26:00,
2013-02-05 01:30:00,30.0,24.0,29.91,North,0,5.0,12.0,78,0.00,,---,0.00,VWS V14.01,2013-02-05 06:30:00,
2013-02-05 01:31:00,30.0,24.0,29.91,NNW,336,7.0,7.0,78,0.00,,---,0.00,VWS V14.01,2013-02-05 06:31:00,
2013-02-05 01:36:00,29.8,23.8,29.91,NNW,344,7.0,11.0,78,0.00,,---,0.00,VWS V14.01,2013-02-05 06:36:00,
2013-02-05 01:41:00,29.8,23.8,29.91,NW,325,4.0,11.0,78,0.00,,---,0.00,VWS V14.01,2013-02-05 06:41:00,
2013-02-05 01:46:00,29.7,23.7,29.91,NNE,19,8.0,11.0,78,0.00,,---,0.00,VWS V14.01,2013-02-05 06:46:00,
2013-02-05 01:51:00,29.5,23.5,29.91,North,350,4.0,11.0,78,0.00,,---,0.00,VWS V14.01,2013-02-05 06:51:00,
2013-02-05 01:56:00,29.5,23.5,29.91,NE,34,2.0,11.0,78,0.00,,---,0.00,VWS V14.01,2013-02-05 06:56:00,
2013-02-05 02:00:00,29.5,23.5,29.91,North,0,5.0,11.0,78,0.00,,---,0.00,VWS V14.01,2013-02-05 07:00:00,
2013-02-05 02:01:00,29.5,23.5,29.91,NE,35,2.0,3.0,78,0.00,,---,0.00,VWS V14.01,2013-02-05 07:01:00,
2013-02-05 02:06:00,29.4,23.7,29.91,North,9,1.0,4.0,79,0.00,,---,0.00,VWS V14.01,2013-02-05 07:06:00,
2013-02-05 02:11:00,29.4,23.7,29.90,NNE,14,3.0,4.0,79,0.00,,---,0.00,VWS V14.01,2013-02-05 07:11:00,
2013-02-05 02:16:00,29.4,23.7,29.91,NNE,15,2.0,4.0,79,0.00,,---,0.00,VWS V14.01,2013-02-05 07:16:00,
2013-02-05 02:21:00,29.3,23.6,29.91,North,5,3.0,7.0,79,0.00,,---,0.00,VWS V14.01,2013-02-05 07:21:00,
2013-02-05 02:26:00,29.3,23.6,29.91,NNE,13,2.0,7.0,79,0.00,,---,0.00,VWS V14.01,2013-02-05 07:26:00,
2013-02-05 02:30:00,29.1,23.4,29.91,NNE,22,2.0,7.0,79,0.00,,---,0.00,VWS V14.01,2013-02-05 07:30:00,
2013-02-05 02:31:00,29.1,23.4,29.91,NNE,24,2.0,5.0,79,0.00,,---,0.00,VWS V14.01,2013-02-05 07:31:00,
2013-02-05 02:36:00,29.1,23.4,29.91,NNE,19,3.0,7.0,79,0.00,,---,0.00,VWS V14.01,2013-02-05 07:36:00,
2013-02-05 02:41:00,29.0,23.3,29.91,North,5,2.0,7.0,79,0.00,,---,0.00,VWS V14.01,2013-02-05 07:41:00,
2013-02-05 02:46:00,29.0,23.3,29.92,NNE,18,7.0,9.0,79,0.00,,---,0.00,VWS V14.01,2013-02-05 07:46:00,
2013-02-05 02:51:00,28.8,22.8,29.92,NE,43,2.0,9.0,78,0.00,,---,0.00,VWS V14.01,2013-02-05 07:51:00,
2013-02-05 02:56:00,28.7,22.7,29.92,NNE,15,5.0,9.0,78,0.00,,---,0.00,VWS V14.01,2013-02-05 07:56:00,
2013-02-05 03:00:00,28.7,22.7,29.91,NNE,22,4.0,9.0,78,0.00,,---,0.00,VWS V14.01,2013-02-05 08:00:00,
2013-02-05 03:01:00,28.7,22.7,29.91,NNE,32,1.0,4.0,78,0.00,,---,0.00,VWS V14.01,2013-02-05 08:01:00,
2013-02-05 03:06:00,28.7,22.7,29.91,North,360,2.0,7.0,78,0.00,,---,0.00,VWS V14.01,2013-02-05 08:06:00,
2013-02-05 03:11:00,28.5,22.5,29.92,NNW,338,6.0,8.0,78,0.00,,---,0.00,VWS V14.01,2013-02-05 08:11:00,
2013-02-05 03:16:00,28.5,22.5,29.92,North,355,6.0,8.0,78,0.00,,---,0.00,VWS V14.01,2013-02-05 08:16:00,
2013-02-05 03:21:00,28.4,22.4,29.93,NNW,329,5.0,9.0,78,0.00,,---,0.00,VWS V14.01,2013-02-05 08:21:00,
2013-02-05 03:26:00,28.4,22.1,29.92,North,350,7.0,10.0,77,0.00,,---,0.00,VWS V14.01,2013-02-05 08:26:00,
2013-02-05 03:30:00,28.2,21.9,29.92,North,0,5.0,10.0,77,0.00,,---,0.00,VWS V14.01,2013-02-05 08:30:00,
2013-02-05 03:31:00,28.2,21.9,29.93,North,355,6.0,8.0,77,0.00,,---,0.00,VWS V14.01,2013-02-05 08:31:00,
2013-02-05 03:36:00,28.2,21.9,29.93,North,5,5.0,9.0,77,0.00,,---,0.00,VWS V14.01,2013-02-05 08:36:00,
2013-02-05 03:41:00,28.1,21.8,29.92,NNE,13,7.0,9.0,77,0.00,,---,0.00,VWS V14.01,2013-02-05 08:41:00,
2013-02-05 03:46:00,27.9,21.6,29.92,North,360,0.0,9.0,77,0.00,,---,0.00,VWS V14.01,2013-02-05 08:46:00,
2013-02-05 03:51:00,27.8,21.5,29.92,NE,36,3.0,9.0,77,0.00,,---,0.00,VWS V14.01,2013-02-05 08:51:00,
2013-02-05 03:56:00,27.6,21.4,29.92,NNW,338,4.0,9.0,77,0.00,,---,0.00,VWS V14.01,2013-02-05 08:56:00,
2013-02-05 04:00:00,27.6,21.6,29.92,North,0,4.0,11.0,78,0.00,,---,0.00,VWS V14.01,2013-02-05 09:00:00,
2013-02-05 04:01:00,27.6,21.6,29.92,NNW,341,2.0,2.0,78,0.00,,---,0.00,VWS V14.01,2013-02-05 09:01:00,
2013-02-05 04:06:00,27.5,21.5,29.91,North,5,0.0,3.0,78,0.00,,---,0.00,VWS V14.01,2013-02-05 09:06:00,
2013-02-05 04:11:00,27.3,21.4,29.92,North,5,3.0,4.0,78,0.00,,---,0.00,VWS V14.01,2013-02-05 09:11:00,
2013-02-05 04:16:00,27.2,21.3,29.92,North,11,1.0,5.0,78,0.00,,---,0.00,VWS V14.01,2013-02-05 09:16:00,
2013-02-05 04:21:00,27.0,21.1,29.92,North,355,3.0,5.0,78,0.00,,---,0.00,VWS V14.01,2013-02-05 09:21:00,
2013-02-05 04:26:00,26.9,21.0,29.92,North,5,3.0,5.0,78,0.00,,---,0.00,VWS V14.01,2013-02-05 09:26:00,
2013-02-05 04:30:00,26.7,20.8,29.91,North,0,2.0,5.0,78,0.00,,---,0.00,VWS V14.01,2013-02-05 09:30:00,
2013-02-05 04:31:00,26.6,20.7,29.91,North,5,0.0,3.0,78,0.00,,---,0.00,VWS V14.01,2013-02-05 09:31:00,
2013-02-05 04:36:00,26.4,20.5,29.91,North,11,3.0,6.0,78,0.00,,---,0.00,VWS V14.01,2013-02-05 09:36:00,
2013-02-05 04:41:00,26.3,20.4,29.92,NNE,20,0.0,6.0,78,0.00,,---,0.00,VWS V14.01,2013-02-05 09:41:00,
2013-02-05 04:46:00,26.3,20.4,29.91,NNE,17,0.0,6.0,78,0.00,,---,0.00,VWS V14.01,2013-02-05 09:46:00,
2013-02-05 04:51:00,26.3,20.7,29.91,North,10,3.0,6.0,79,0.00,,---,0.00,VWS V14.01,2013-02-05 09:51:00,
2013-02-05 04:56:00,26.1,20.5,29.92,NNE,13,1.0,6.0,79,0.00,,---,0.00,VWS V14.01,2013-02-05 09:56:00,
2013-02-05 05:00:00,26.0,20.4,29.92,NNE,22,2.0,6.0,79,0.00,,---,0.00,VWS V14.01,2013-02-05 10:00:00,
2013-02-05 05:01:00,26.0,20.4,29.92,NNE,21,0.0,0.0,79,0.00,,---,0.00,VWS V14.01,2013-02-05 10:01:00,
2013-02-05 05:06:00,25.8,20.2,29.92,ENE,71,0.0,3.0,79,0.00,,---,0.00,VWS V14.01,2013-02-05 10:06:00,
2013-02-05 05:11:00,25.8,20.2,29.92,ENE,65,1.0,4.0,79,0.00,,---,0.00,VWS V14.01,2013-02-05 10:11:00,
2013-02-05 05:16:00,25.8,20.5,29.92,NNE,18,2.0,4.0,80,0.00,,---,0.00,VWS V14.01,2013-02-05 10:16:00,
2013-02-05 05:21:00,25.8,20.5,29.93,NNE,13,1.0,7.0,80,0.00,,---,0.00,VWS V14.01,2013-02-05 10:21:00,
2013-02-05 05:26:00,25.8,20.5,29.92,NNE,31,0.0,7.0,80,0.00,,---,0.00,VWS V14.01,2013-02-05 10:26:00,
2013-02-05 05:30:00,25.8,20.5,29.92,NNE,22,1.0,7.0,80,0.00,,---,0.00,VWS V14.01,2013-02-05 10:30:00,
2013-02-05 05:31:00,25.8,20.5,29.92,ENE,59,0.0,1.0,80,0.00,,---,0.00,VWS V14.01,2013-02-05 10:31:00,
2013-02-05 05:36:00,26.0,20.7,29.93,North,9,3.0,5.0,80,0.00,,---,0.00,VWS V14.01,2013-02-05 10:36:00,
2013-02-05 05:41:00,26.0,20.7,29.93,North,11,5.0,6.0,80,0.00,,---,0.00,VWS V14.01,2013-02-05 10:41:00,
2013-02-05 05:46:00,26.0,21.0,29.93,NNE,32,0.0,7.0,81,0.00,,---,0.00,VWS V14.01,2013-02-05 10:46:00,
2013-02-05 05:51:00,26.0,21.0,29.93,North,5,3.0,7.0,81,0.00,,---,0.00,VWS V14.01,2013-02-05 10:51:00,
2013-02-05 05:56:00,26.0,21.0,29.93,NNE,24,5.0,7.0,81,0.00,,---,0.00,VWS V14.01,2013-02-05 10:56:00,
2013-02-05 06:00:00,26.1,20.8,29.93,North,0,2.0,8.0,80,0.00,,---,0.00,VWS V14.01,2013-02-05 11:00:00,
2013-02-05 06:02:00,26.1,20.8,29.93,NNE,12,0.0,0.0,80,0.00,,---,0.00,VWS V14.01,2013-02-05 11:02:00,
2013-02-05 06:06:00,26.0,20.7,29.93,NNE,12,0.0,3.0,80,0.00,,---,0.00,VWS V14.01,2013-02-05 11:06:00,
2013-02-05 06:11:00,26.1,20.8,29.93,NNE,30,0.0,5.0,80,0.00,,---,0.00,VWS V14.01,2013-02-05 11:11:00,
2013-02-05 06:17:00,26.1,20.8,29.93,NNE,31,0.0,5.0,80,0.00,,---,0.00,VWS V14.01,2013-02-05 11:17:00,
2013-02-05 06:22:00,26.1,20.8,29.93,NNE,31,0.0,5.0,80,0.00,,---,0.00,VWS V14.01,2013-02-05 11:22:00,
2013-02-05 06:27:00,26.0,20.7,29.92,NNE,31,0.0,5.0,80,0.00,,---,0.00,VWS V14.01,2013-02-05 11:27:00,
2013-02-05 06:30:00,26.0,20.7,29.92,NNE,22,0.0,6.0,80,0.00,,---,0.00,VWS V14.01,2013-02-05 11:30:00,
2013-02-05 06:32:00,26.0,20.7,29.93,NNE,32,0.0,0.0,80,0.00,,---,0.00,VWS V14.01,2013-02-05 11:32:00,
2013-02-05 06:37:00,25.8,20.5,29.93,NNE,32,0.0,0.0,80,0.00,,---,0.00,VWS V14.01,2013-02-05 11:37:00,
2013-02-05 06:42:00,25.7,20.4,29.93,NNE,32,0.0,2.0,80,0.00,,---,0.00,VWS V14.01,2013-02-05 11:42:00,
2013-02-05 06:47:00,25.7,20.4,29.93,NNE,32,2.0,2.0,80,0.00,,---,0.00,VWS V14.01,2013-02-05 11:47:00,
2013-02-05 06:52:00,25.6,20.3,29.93,NNE,32,0.0,2.0,80,0.00,,---,0.00,VWS V14.01,2013-02-05 11:52:00,
2013-02-05 06:57:00,25.4,20.1,29.93,NNE,32,1.0,2.0,80,0.00,,---,0.00,VWS V14.01,2013-02-05 11:57:00,
2013-02-05 07:00:00,25.3,20.0,29.93,NNE,22,0.0,2.0,80,0.00,,---,0.00,VWS V14.01,2013-02-05 12:00:00,
2013-02-05 07:02:00,25.3,20.0,29.93,NNE,32,0.0,0.0,80,0.00,,---,0.00,VWS V14.01,2013-02-05 12:02:00,
2013-02-05 07:07:00,25.1,20.1,29.93,NNE,32,1.0,2.0,81,0.00,,---,0.00,VWS V14.01,2013-02-05 12:07:00,
2013-02-05 07:12:00,25.0,20.0,29.94,NNE,32,0.0,2.0,81,0.00,,---,0.00,VWS V14.01,2013-02-05 12:12:00,
2013-02-05 07:17:00,24.8,19.8,29.94,NNE,32,0.0,2.0,81,0.00,,---,0.00,VWS V14.01,2013-02-05 12:17:00,
2013-02-05 07:22:00,24.7,19.7,29.94,NNE,32,0.0,2.0,81,0.00,,---,0.00,VWS V14.01,2013-02-05 12:22:00,
2013-02-05 07:27:00,24.5,19.5,29.94,NNE,32,0.0,2.0,81,0.00,,---,0.00,VWS V14.01,2013-02-05 12:27:00,
2013-02-05 07:30:00,24.7,20.0,29.94,NNE,22,0.0,2.0,82,0.00,,---,0.00,VWS V14.01,2013-02-05 12:30:00,
2013-02-05 07:32:00,24.7,20.0,29.95,NNE,32,0.0,0.0,82,0.00,,---,0.00,VWS V14.01,2013-02-05 12:32:00,
2013-02-05 07:37:00,24.7,20.0,29.95,NNE,32,0.0,0.0,82,0.00,,---,0.00,VWS V14.01,2013-02-05 12:37:00,
2013-02-05 07:42:00,24.7,20.0,29.94,NNE,32,0.0,0.0,82,0.00,,---,0.00,VWS V14.01,2013-02-05 12:42:00,
2013-02-05 07:47:00,24.7,20.0,29.95,NNE,32,0.0,0.0,82,0.00,,---,0.00,VWS V14.01,2013-02-05 12:47:00,
2013-02-05 07:52:00,24.7,20.3,29.96,NNE,32,0.0,0.0,83,0.00,,---,0.00,VWS V14.01,2013-02-05 12:52:00,
2013-02-05 07:57:00,24.7,20.3,29.96,NNE,32,0.0,0.0,83,0.00,,---,0.00,VWS V14.01,2013-02-05 12:57:00,
2013-02-05 08:00:00,24.7,20.3,29.95,NNE,22,0.0,0.0,83,0.00,,---,0.00,VWS V14.01,2013-02-05 13:00:00,
2013-02-05 08:02:00,24.7,20.3,29.95,NNE,32,0.0,0.0,83,0.00,,---,0.00,VWS V14.01,2013-02-05 13:02:00,
2013-02-05 08:07:00,24.8,20.4,29.96,NNE,32,0.0,0.0,83,0.00,,---,0.00,VWS V14.01,2013-02-05 13:07:00,
2013-02-05 08:12:00,25.0,20.6,29.96,NNE,32,0.0,0.0,83,0.00,,---,0.00,VWS V14.01,2013-02-05 13:12:00,
2013-02-05 08:17:00,25.4,21.2,29.96,NNE,32,0.0,0.0,84,0.00,,---,0.00,VWS V14.01,2013-02-05 13:17:00,
2013-02-05 08:22:00,25.4,21.0,29.95,NNE,32,1.0,2.0,83,0.00,,---,0.00,VWS V14.01,2013-02-05 13:22:00,
2013-02-05 08:27:00,25.7,21.5,29.96,NNE,32,0.0,2.0,84,0.00,,---,0.00,VWS V14.01,2013-02-05 13:27:00,
2013-02-05 08:30:00,25.8,21.4,29.96,NNE,22,0.0,2.0,83,0.00,,---,0.00,VWS V14.01,2013-02-05 13:30:00,
2013-02-05 08:32:00,25.8,21.4,29.96,NNE,32,0.0,0.0,83,0.00,,---,0.00,VWS V14.01,2013-02-05 13:32:00,
2013-02-05 08:37:00,25.7,21.0,29.95,NNE,32,1.0,2.0,82,0.00,,---,0.00,VWS V14.01,2013-02-05 13:37:00,
2013-02-05 08:42:00,25.6,20.9,29.96,NE,34,0.0,2.0,82,0.00,,---,0.00,VWS V14.01,2013-02-05 13:42:00,
2013-02-05 08:47:00,25.6,20.9,29.96,NE,37,1.0,2.0,82,0.00,,---,0.00,VWS V14.01,2013-02-05 13:47:00,
2013-02-05 08:52:00,25.6,20.9,29.96,NE,37,1.0,2.0,82,0.00,,---,0.00,VWS V14.01,2013-02-05 13:52:00,
2013-02-05 08:57:00,25.6,20.9,29.96,ENE,61,0.0,3.0,82,0.00,,---,0.00,VWS V14.01,2013-02-05 13:57:00,
2013-02-05 09:00:00,25.7,21.0,29.95,NNE,22,1.0,3.0,82,0.00,,---,0.00,VWS V14.01,2013-02-05 14:00:00,
2013-02-05 09:02:00,25.7,21.0,29.96,ENE,65,0.0,1.0,82,0.00,,---,0.00,VWS V14.01,2013-02-05 14:02:00,
2013-02-05 09:07:00,25.6,20.9,29.95,ENE,65,2.0,2.0,82,0.00,,---,0.00,VWS V14.01,2013-02-05 14:07:00,
2013-02-05 09:12:00,25.7,21.0,29.95,East,81,2.0,3.0,82,0.00,,---,0.00,VWS V14.01,2013-02-05 14:12:00,
2013-02-05 09:17:00,25.7,21.0,29.95,ESE,107,2.0,3.0,82,0.00,,---,0.00,VWS V14.01,2013-02-05 14:17:00,
2013-02-05 09:22:00,25.7,21.0,29.95,ESE,116,3.0,4.0,82,0.00,,---,0.00,VWS V14.01,2013-02-05 14:22:00,
2013-02-05 09:27:00,25.7,21.0,29.95,SE,132,3.0,4.0,82,0.00,,---,0.00,VWS V14.01,2013-02-05 14:27:00,
2013-02-05 09:30:00,25.7,21.0,29.95,ESE,112,2.0,4.0,82,0.00,,---,0.00,VWS V14.01,2013-02-05 14:30:00,
2013-02-05 09:32:00,25.8,21.1,29.95,SE,134,3.0,4.0,82,0.00,,---,0.00,VWS V14.01,2013-02-05 14:32:00,
2013-02-05 09:37:00,25.8,20.8,29.96,SE,130,3.0,4.0,81,0.00,,---,0.00,VWS V14.01,2013-02-05 14:37:00,
2013-02-05 09:42:00,26.0,21.0,29.96,SE,134,4.0,4.0,81,0.00,,---,0.00,VWS V14.01,2013-02-05 14:42:00,
2013-02-05 09:47:00,26.0,21.0,29.96,SE,144,2.0,4.0,81,0.00,,---,0.00,VWS V14.01,2013-02-05 14:47:00,
2013-02-05 09:52:00,26.3,21.3,29.95,ESE,117,3.0,5.0,81,0.00,,---,0.00,VWS V14.01,2013-02-05 14:52:00,
2013-02-05 09:57:00,26.4,21.4,29.96,SE,139,3.0,5.0,81,0.00,,---,0.00,VWS V14.01,2013-02-05 14:57:00,
2013-02-05 10:00:00,26.6,21.6,29.97,SE,135,3.0,5.0,81,0.00,,---,0.00,VWS V14.01,2013-02-05 15:00:00,
2013-02-05 10:02:00,26.6,21.6,29.97,SE,139,0.0,0.0,81,0.00,,---,0.00,VWS V14.01,2013-02-05 15:02:00,
2013-02-05 10:07:00,26.9,21.6,29.97,South,169,1.0,2.0,80,0.00,,---,0.00,VWS V14.01,2013-02-05 15:07:00,
2013-02-05 10:12:00,26.9,21.6,29.97,SSW,195,1.0,3.0,80,0.00,,---,0.00,VWS V14.01,2013-02-05 15:12:00,
2013-02-05 10:17:00,27.0,21.7,29.98,SSW,194,2.0,3.0,80,0.00,,---,0.00,VWS V14.01,2013-02-05 15:17:00,
2013-02-05 10:22:00,27.2,21.6,29.98,South,190,0.0,4.0,79,0.00,,---,0.00,VWS V14.01,2013-02-05 15:22:00,
2013-02-05 10:27:00,27.2,21.6,29.98,SSE,164,0.0,4.0,79,0.00,,---,0.00,VWS V14.01,2013-02-05 15:27:00,
2013-02-05 10:30:00,27.2,21.6,29.98,South,180,1.0,4.0,79,0.00,,---,0.00,VWS V14.01,2013-02-05 15:30:00,
2013-02-05 10:32:00,27.2,21.6,29.98,SSE,163,0.0,2.0,79,0.00,,---,0.00,VWS V14.01,2013-02-05 15:32:00,
2013-02-05 10:37:00,27.3,21.7,29.98,SSE,157,3.0,3.0,79,0.00,,---,0.00,VWS V14.01,2013-02-05 15:37:00,
2013-02-05 10:42:00,27.5,21.9,29.97,SSE,157,0.0,4.0,79,0.00,,---,0.00,VWS V14.01,2013-02-05 15:42:00,
2013-02-05 10:47:00,27.5,21.9,29.97,SSE,153,0.0,5.0,79,0.00,,---,0.00,VWS V14.01,2013-02-05 15:47:00,
2013-02-05 10:52:00,27.8,22.1,29.97,SSE,158,0.0,5.0,79,0.00,,---,0.00,VWS V14.01,2013-02-05 15:52:00,
2013-02-05 10:57:00,27.8,22.1,29.97,SSE,167,1.0,5.0,79,0.00,,---,0.00,VWS V14.01,2013-02-05 15:57:00,
2013-02-05 11:00:00,27.9,22.2,29.97,SSE,158,1.0,5.0,79,0.00,,---,0.00,VWS V14.01,2013-02-05 16:00:00,
2013-02-05 11:02:00,27.8,21.9,29.97,SSW,203,3.0,5.0,78,0.00,,---,0.00,VWS V14.01,2013-02-05 16:02:00,
2013-02-05 11:07:00,27.9,21.9,29.97,South,191,2.0,5.0,78,0.00,,---,0.00,VWS V14.01,2013-02-05 16:07:00,
2013-02-05 11:12:00,27.9,21.9,29.97,SSE,153,2.0,5.0,78,0.00,,---,0.00,VWS V14.01,2013-02-05 16:12:00,
2013-02-05 11:17:00,28.1,22.1,29.97,South,174,1.0,5.0,78,0.00,,---,0.00,VWS V14.01,2013-02-05 16:17:00,
2013-02-05 11:23:00,28.2,22.2,29.97,SSE,157,3.0,7.0,78,0.00,,---,0.00,VWS V14.01,2013-02-05 16:23:00,
2013-02-05 11:27:00,28.4,22.4,29.96,SSE,149,7.0,9.0,78,0.00,,---,0.00,VWS V14.01,2013-02-05 16:27:00,
2013-02-05 11:30:00,28.2,22.2,29.96,SSE,158,3.0,10.0,78,0.00,,---,0.00,VWS V14.01,2013-02-05 16:30:00,
2013-02-05 11:32:00,28.2,22.2,29.96,SSE,162,2.0,9.0,78,0.00,,---,0.00,VWS V14.01,2013-02-05 16:32:00,
2013-02-05 11:37:00,28.2,22.2,29.96,SSE,150,4.0,9.0,78,0.00,,---,0.00,VWS V14.01,2013-02-05 16:37:00,
2013-02-05 11:43:00,28.7,22.7,29.96,SSE,163,3.0,9.0,78,0.00,,---,0.00,VWS V14.01,2013-02-05 16:43:00,
2013-02-05 11:48:00,28.7,22.7,29.95,SSE,159,2.0,9.0,78,0.00,,---,0.00,VWS V14.01,2013-02-05 16:48:00,
2013-02-05 11:53:00,28.7,22.4,29.95,SE,138,3.0,9.0,77,0.00,,---,0.00,VWS V14.01,2013-02-05 16:53:00,
2013-02-05 11:58:00,28.7,22.4,29.95,SSE,158,3.0,10.0,77,0.00,,---,0.00,VWS V14.01,2013-02-05 16:58:00,
2013-02-05 12:00:00,29.0,23.0,29.94,SSE,158,4.0,11.0,78,0.00,,---,0.00,VWS V14.01,2013-02-05 17:00:00,
2013-02-05 12:03:00,28.8,22.8,29.94,SSE,157,6.0,10.0,78,0.00,,---,0.00,VWS V14.01,2013-02-05 17:03:00,
2013-02-05 12:08:00,29.1,23.1,29.95,SSE,157,2.0,10.0,78,0.00,,---,0.00,VWS V14.01,2013-02-05 17:08:00,
2013-02-05 12:13:00,29.3,23.0,29.94,SE,142,6.0,10.0,77,0.00,,---,0.00,VWS V14.01,2013-02-05 17:13:00,
2013-02-05 12:18:00,29.8,23.5,29.94,SSE,161,4.0,10.0,77,0.00,,---,0.00,VWS V14.01,2013-02-05 17:18:00,
2013-02-05 12:23:00,29.8,23.2,29.93,SE,136,6.0,10.0,76,0.00,,---,0.00,VWS V14.01,2013-02-05 17:23:00,
2013-02-05 12:28:00,29.8,23.2,29.93,SE,144,9.0,11.0,76,0.00,,---,0.00,VWS V14.01,2013-02-05 17:28:00,
2013-02-05 12:30:00,29.7,23.1,29.93,SSE,158,6.0,12.0,76,0.00,,---,0.00,VWS V14.01,2013-02-05 17:30:00,
2013-02-05 12:33:00,29.7,23.4,29.92,SSE,147,10.0,11.0,77,0.00,,---,0.00,VWS V14.01,2013-02-05 17:33:00,
2013-02-05 12:38:00,29.5,23.2,29.92,SE,142,7.0,13.0,77,0.00,,---,0.00,VWS V14.01,2013-02-05 17:38:00,
2013-02-05 12:43:00,29.7,23.4,29.92,SSE,158,7.0,13.0,77,0.00,,---,0.00,VWS V14.01,2013-02-05 17:43:00,
2013-02-05 12:48:00,29.7,23.4,29.91,SE,141,1.0,13.0,77,0.00,,---,0.00,VWS V14.01,2013-02-05 17:48:00,
2013-02-05 12:53:00,29.8,23.5,29.92,SSE,158,5.0,13.0,77,0.00,,---,0.00,VWS V14.01,2013-02-05 17:53:00,
2013-02-05 12:58:00,30.0,23.7,29.91,SSE,154,4.0,13.0,77,0.00,,---,0.00,VWS V14.01,2013-02-05 17:58:00,
2013-02-05 13:00:00,29.8,23.2,29.91,SSE,158,6.0,13.0,76,0.00,,---,0.00,VWS V14.01,2013-02-05 18:00:00,
2013-02-05 13:03:00,29.8,23.5,29.91,SSE,163,6.0,9.0,77,0.00,,---,0.00,VWS V14.01,2013-02-05 18:03:00,
2013-02-05 13:08:00,29.8,23.2,29.91,SSE,148,6.0,10.0,76,0.00,,---,0.00,VWS V14.01,2013-02-05 18:08:00,
2013-02-05 13:13:00,30.0,23.4,29.91,SSE,160,2.0,10.0,76,0.00,,---,0.00,VWS V14.01,2013-02-05 18:13:00,
2013-02-05 13:18:00,30.1,23.8,29.91,SSE,160,2.0,10.0,77,0.00,,---,0.00,VWS V14.01,2013-02-05 18:18:00,
2013-02-05 13:23:00,30.3,24.0,29.91,SE,140,7.0,10.0,77,0.00,,---,0.00,VWS V14.01,2013-02-05 18:23:00,
2013-02-05 13:28:00,30.4,24.1,29.91,SSE,162,1.0,10.0,77,0.00,,---,0.00,VWS V14.01,2013-02-05 18:28:00,
2013-02-05 13:30:00,30.6,24.3,29.91,SSE,158,3.0,10.0,77,0.00,,---,0.00,VWS V14.01,2013-02-05 18:30:00,
2013-02-05 13:33:00,30.6,24.3,29.91,SSE,159,3.0,5.0,77,0.00,,---,0.00,VWS V14.01,2013-02-05 18:33:00,
2013-02-05 13:38:00,30.9,24.5,29.90,SSE,164,1.0,6.0,77,0.00,,---,0.00,VWS V14.01,2013-02-05 18:38:00,
2013-02-05 13:43:00,31.0,24.3,29.90,SSE,153,6.0,8.0,76,0.00,,---,0.00,VWS V14.01,2013-02-05 18:43:00,
2013-02-05 13:48:00,31.2,24.5,29.90,South,169,1.0,8.0,76,0.00,,---,0.00,VWS V14.01,2013-02-05 18:48:00,
2013-02-05 13:53:00,31.3,24.6,29.89,SSE,151,4.0,8.0,76,0.00,,---,0.00,VWS V14.01,2013-02-05 18:53:00,
2013-02-05 13:58:00,31.5,24.8,29.90,SSE,167,1.0,8.0,76,0.00,,---,0.00,VWS V14.01,2013-02-05 18:58:00,
2013-02-05 14:00:00,31.5,24.8,29.90,SSE,158,3.0,9.0,76,0.00,,---,0.00,VWS V14.01,2013-02-05 19:00:00,
2013-02-05 14:03:00,31.6,24.9,29.89,South,181,2.0,6.0,76,0.00,,---,0.00,VWS V14.01,2013-02-05 19:03:00,
2013-02-05 14:08:00,31.9,25.2,29.90,SSW,205,3.0,6.0,76,0.00,,---,0.00,VWS V14.01,2013-02-05 19:08:00,
2013-02-05 14:13:00,32.2,25.2,29.90,South,188,2.0,6.0,75,0.00,,---,0.00,VWS V14.01,2013-02-05 19:13:00,
2013-02-05 14:18:00,32.2,25.2,29.89,SSW,203,7.0,9.0,75,0.00,,---,0.00,VWS V14.01,2013-02-05 19:18:00,
2013-02-05 14:23:00,32.4,25.4,29.89,SSE,165,1.0,9.0,75,0.00,,---,0.00,VWS V14.01,2013-02-05 19:23:00,
2013-02-05 14:28:00,32.5,25.5,29.89,SSE,168,3.0,9.0,75,0.00,,---,0.00,VWS V14.01,2013-02-05 19:28:00,
2013-02-05 14:30:00,32.5,25.1,29.88,South,180,3.0,11.0,74,0.00,,---,0.00,VWS V14.01,2013-02-05 19:30:00,
2013-02-05 14:33:00,32.7,25.7,29.88,South,180,2.0,4.0,75,0.00,,---,0.00,VWS V14.01,2013-02-05 19:33:00,
2013-02-05 14:38:00,32.8,25.8,29.88,South,175,3.0,8.0,75,0.00,,---,0.00,VWS V14.01,2013-02-05 19:38:00,
2013-02-05 14:43:00,32.9,25.9,29.88,SSE,165,1.0,8.0,75,0.00,,---,0.00,VWS V14.01,2013-02-05 19:43:00,
2013-02-05 14:48:00,33.1,26.0,29.87,South,173,3.0,8.0,75,0.00,,---,0.00,VWS V14.01,2013-02-05 19:48:00,
2013-02-05 14:53:00,32.9,25.9,29.87,SSE,161,6.0,8.0,75,0.00,,---,0.00,VWS V14.01,2013-02-05 19:53:00,
2013-02-05 14:58:00,33.2,26.5,29.87,SSW,194,4.0,8.0,76,0.00,,---,0.00,VWS V14.01,2013-02-05 19:58:00,
2013-02-05 15:00:00,33.2,26.1,29.87,South,180,3.0,8.0,75,0.00,,---,0.00,VWS V14.01,2013-02-05 20:00:00,
2013-02-05 15:03:00,33.4,26.7,29.87,South,169,2.0,8.0,76,0.00,,---,0.00,VWS V14.01,2013-02-05 20:03:00,
2013-02-05 15:08:00,33.4,26.0,29.87,SSW,203,7.0,10.0,74,0.00,,---,0.00,VWS V14.01,2013-02-05 20:08:00,
2013-02-05 15:13:00,33.5,26.1,29.87,South,190,6.0,12.0,74,0.00,,---,0.00,VWS V14.01,2013-02-05 20:13:00,
2013-02-05 15:18:00,33.7,26.3,29.87,South,180,7.0,12.0,74,0.00,,---,0.00,VWS V14.01,2013-02-05 20:18:00,
2013-02-05 15:23:00,33.8,26.4,29.86,SSE,161,6.0,12.0,74,0.00,,---,0.00,VWS V14.01,2013-02-05 20:23:00,
2013-02-05 15:28:00,34.1,26.7,29.86,SSW,196,9.0,12.0,74,0.00,,---,0.00,VWS V14.01,2013-02-05 20:28:00,
2013-02-05 15:30:00,34.1,26.4,29.86,SSW,202,6.0,14.0,73,0.00,,---,0.00,VWS V14.01,2013-02-05 20:30:00,
2013-02-05 15:34:00,34.3,26.6,29.86,South,186,5.0,8.0,73,0.00,,---,0.00,VWS V14.01,2013-02-05 20:34:00,
2013-02-05 15:39:00,34.4,26.7,29.86,South,178,7.0,8.0,73,0.00,,---,0.00,VWS V14.01,2013-02-05 20:39:00,
2013-02-05 15:44:00,34.7,27.0,29.86,SSW,198,6.0,10.0,73,0.00,,---,0.00,VWS V14.01,2013-02-05 20:44:00,
2013-02-05 15:49:00,34.9,27.1,29.86,SSW,209,4.0,10.0,73,0.00,,---,0.00,VWS V14.01,2013-02-05 20:49:00,
2013-02-05 15:54:00,35.0,26.9,29.86,SSE,162,3.0,10.0,72,0.00,,---,0.00,VWS V14.01,2013-02-05 20:54:00,
2013-02-05 15:59:00,35.3,27.2,29.86,SSW,208,7.0,12.0,72,0.00,,---,0.00,VWS V14.01,2013-02-05 20:59:00,
2013-02-05 16:00:00,35.5,27.4,29.86,South,180,5.0,12.0,72,0.00,,---,0.00,VWS V14.01,2013-02-05 21:00:00,
2013-02-05 16:04:00,35.6,27.1,29.86,South,181,6.0,9.0,71,0.00,,---,0.00,VWS V14.01,2013-02-05 21:04:00,
2013-02-05 16:09:00,35.8,27.3,29.86,SSW,200,3.0,9.0,71,0.00,,---,0.00,VWS V14.01,2013-02-05 21:09:00,
2013-02-05 16:14:00,35.9,27.4,29.86,SW,215,7.0,9.0,71,0.00,,---,0.00,VWS V14.01,2013-02-05 21:14:00,
2013-02-05 16:19:00,36.0,26.8,29.86,SW,219,6.0,11.0,69,0.00,,---,0.00,VWS V14.01,2013-02-05 21:19:00,
2013-02-05 16:24:00,36.0,26.8,29.86,SW,223,6.0,11.0,69,0.00,,---,0.00,VWS V14.01,2013-02-05 21:24:00,
2013-02-05 16:29:00,36.2,27.0,29.87,SW,218,5.0,11.0,69,0.00,,---,0.00,VWS V14.01,2013-02-05 21:29:00,
2013-02-05 16:30:00,36.3,27.1,29.87,SW,225,5.0,11.0,69,0.00,,---,0.00,VWS V14.01,2013-02-05 21:30:00,
2013-02-05 16:34:00,36.3,27.1,29.87,SW,215,4.0,5.0,69,0.00,,---,0.00,VWS V14.01,2013-02-05 21:34:00,
2013-02-05 16:39:00,36.5,27.3,29.87,SW,215,3.0,6.0,69,0.00,,---,0.00,VWS V14.01,2013-02-05 21:39:00,
2013-02-05 16:44:00,36.8,27.6,29.86,SW,215,3.0,6.0,69,0.00,,---,0.00,VWS V14.01,2013-02-05 21:44:00,
2013-02-05 16:49:00,36.9,27.7,29.86,SW,219,5.0,6.0,69,0.00,,---,0.00,VWS V14.01,2013-02-05 21:49:00,
2013-02-05 16:54:00,37.2,27.6,29.86,SW,221,3.0,7.0,68,0.00,,---,0.00,VWS V14.01,2013-02-05 21:54:00,
2013-02-05 16:59:00,37.6,27.6,29.87,SW,231,2.0,7.0,67,0.00,,---,0.00,VWS V14.01,2013-02-05 21:59:00,
2013-02-05 17:00:00,37.9,27.9,29.87,SW,225,4.0,7.0,67,0.00,,---,0.00,VWS V14.01,2013-02-05 22:00:00,
2013-02-05 17:04:00,38.2,27.1,29.87,WSW,248,6.0,8.0,64,0.00,,---,0.00,VWS V14.01,2013-02-05 22:04:00,
2013-02-05 17:09:00,38.6,27.1,29.87,SW,228,6.0,9.0,63,0.00,,---,0.00,VWS V14.01,2013-02-05 22:09:00,
2013-02-05 17:14:00,38.9,26.2,29.87,WSW,240,7.0,12.0,60,0.00,,---,0.00,VWS V14.01,2013-02-05 22:14:00,
2013-02-05 17:19:00,39.2,26.5,29.87,WSW,252,7.0,12.0,60,0.00,,---,0.00,VWS V14.01,2013-02-05 22:19:00,
2013-02-05 17:24:00,39.1,26.4,29.87,WSW,247,4.0,12.0,60,0.00,,---,0.00,VWS V14.01,2013-02-05 22:24:00,
2013-02-05 17:29:00,38.8,26.1,29.88,WSW,248,6.0,12.0,60,0.00,,---,0.00,VWS V14.01,2013-02-05 22:29:00,
2013-02-05 17:30:00,38.8,26.1,29.88,WSW,248,6.0,12.0,60,0.00,,---,0.00,VWS V14.01,2013-02-05 22:30:00,
2013-02-05 17:34:00,38.8,26.1,29.88,WSW,241,8.0,13.0,60,0.00,,---,0.00,VWS V14.01,2013-02-05 22:34:00,
2013-02-05 17:39:00,38.8,26.1,29.88,West,261,6.0,13.0,60,0.00,,---,0.00,VWS V14.01,2013-02-05 22:39:00,
2013-02-05 17:44:00,38.8,26.1,29.88,WSW,257,9.0,13.0,60,0.00,,---,0.00,VWS V14.01,2013-02-05 22:44:00,
2013-02-05 17:49:00,38.8,26.5,29.88,WSW,255,9.0,13.0,61,0.00,,---,0.00,VWS V14.01,2013-02-05 22:49:00,
2013-02-05 17:54:00,38.5,26.2,29.89,West,263,9.0,13.0,61,0.00,,---,0.00,VWS V14.01,2013-02-05 22:54:00,
2013-02-05 17:59:00,38.3,26.0,29.89,West,273,8.0,14.0,61,0.00,,---,0.00,VWS V14.01,2013-02-05 22:59:00,
2013-02-05 18:00:00,38.3,26.0,29.90,West,270,8.0,15.0,61,0.00,,---,0.00,VWS V14.01,2013-02-05 23:00:00,
2013-02-05 18:04:00,38.2,26.0,29.90,West,275,8.0,11.0,61,0.00,,---,0.00,VWS V14.01,2013-02-05 23:04:00,
2013-02-05 18:09:00,38.0,26.1,29.90,West,265,9.0,11.0,62,0.00,,---,0.00,VWS V14.01,2013-02-05 23:09:00,
2013-02-05 18:14:00,37.9,26.1,29.91,West,281,8.0,11.0,62,0.00,,---,0.00,VWS V14.01,2013-02-05 23:14:00,
2013-02-05 18:19:00,37.8,26.4,29.91,WNW,292,4.0,11.0,63,0.00,,---,0.00,VWS V14.01,2013-02-05 23:19:00,
2013-02-05 18:24:00,37.6,26.2,29.91,WNW,289,7.0,12.0,63,0.00,,---,0.00,VWS V14.01,2013-02-05 23:24:00,
2013-02-05 18:29:00,37.6,26.5,29.91,WNW,292,6.0,12.0,64,0.00,,---,0.00,VWS V14.01,2013-02-05 23:29:00,
2013-02-05 18:30:00,37.6,26.5,29.91,West,270,7.0,13.0,64,0.00,,---,0.00,VWS V14.01,2013-02-05 23:30:00,
2013-02-05 18:34:00,37.5,26.5,29.92,WNW,286,6.0,7.0,64,0.00,,---,0.00,VWS V14.01,2013-02-05 23:34:00,
2013-02-05 18:39:00,37.3,26.6,29.92,WNW,301,6.0,8.0,65,0.00,,---,0.00,VWS V14.01,2013-02-05 23:39:00,
2013-02-05 18:44:00,37.3,27.0,29.92,WNW,294,8.0,12.0,66,0.00,,---,0.00,VWS V14.01,2013-02-05 23:44:00,
2013-02-05 18:49:00,37.3,27.4,29.93,WNW,300,8.0,12.0,67,0.00,,---,0.00,VWS V14.01,2013-02-05 23:49:00,
2013-02-05 18:54:00,37.3,27.4,29.93,NW,309,9.0,12.0,67,0.00,,---,0.00,VWS V14.01,2013-02-05 23:54:00,
2013-02-05 18:59:00,37.2,27.6,29.93,NW,309,4.0,12.0,68,0.00,,---,0.00,VWS V14.01,2013-02-05 23:59:00,
2013-02-05 19:00:00,37.0,27.4,29.93,WNW,292,6.0,12.0,68,0.00,,---,0.00,VWS V14.01,2013-02-06 00:00:00,
2013-02-05 19:04:00,37.0,27.4,29.93,NW,306,5.0,10.0,68,0.00,,---,0.00,VWS V14.01,2013-02-06 00:04:00,
2013-02-05 19:09:00,36.9,27.7,29.93,NW,304,5.0,11.0,69,0.00,,---,0.00,VWS V14.01,2013-02-06 00:09:00,
2013-02-05 19:14:00,36.8,28.0,29.94,NW,304,5.0,11.0,70,0.00,,---,0.00,VWS V14.01,2013-02-06 00:14:00,
2013-02-05 19:19:00,36.6,28.1,29.94,WNW,297,7.0,12.0,71,0.00,,---,0.00,VWS V14.01,2013-02-06 00:19:00,
2013-02-05 19:24:00,36.8,28.3,29.94,WNW,289,7.0,12.0,71,0.00,,---,0.00,VWS V14.01,2013-02-06 00:24:00,
2013-02-05 19:29:00,36.8,28.6,29.94,WNW,290,8.0,12.0,72,0.00,,---,0.00,VWS V14.01,2013-02-06 00:29:00,
2013-02-05 19:30:00,36.8,28.6,29.94,WNW,292,7.0,13.0,72,0.00,,---,0.00,VWS V14.01,2013-02-06 00:30:00,
2013-02-05 19:34:00,36.8,29.6,29.94,WNW,291,8.0,10.0,75,0.00,,---,0.00,VWS V14.01,2013-02-06 00:34:00,
2013-02-05 19:39:00,36.8,28.6,29.94,WNW,282,8.0,10.0,72,0.00,,---,0.00,VWS V14.01,2013-02-06 00:39:00,
2013-02-05 19:44:00,36.8,28.6,29.94,West,259,9.0,12.0,72,0.00,,---,0.00,VWS V14.01,2013-02-06 00:44:00,
2013-02-05 19:49:00,36.9,28.7,29.94,West,269,6.0,12.0,72,0.00,,---,0.00,VWS V14.01,2013-02-06 00:49:00,
2013-02-05 19:54:00,36.9,28.7,29.94,West,281,7.0,12.0,72,0.00,,---,0.00,VWS V14.01,2013-02-06 00:54:00,
2013-02-05 19:59:00,36.9,28.7,29.95,West,272,6.0,12.0,72,0.00,,---,0.00,VWS V14.01,2013-02-06 00:59:00,
2013-02-05 20:00:00,36.9,28.7,29.95,West,270,7.0,12.0,72,0.00,,---,0.00,VWS V14.01,2013-02-06 01:00:00,
2013-02-05 20:04:00,37.0,28.8,29.95,WNW,290,7.0,11.0,72,0.00,,---,0.00,VWS V14.01,2013-02-06 01:04:00,
2013-02-05 20:09:00,36.9,28.7,29.95,West,279,7.0,11.0,72,0.00,,---,0.00,VWS V14.01,2013-02-06 01:09:00,
2013-02-05 20:14:00,36.9,28.7,29.95,West,276,6.0,11.0,72,0.00,,---,0.00,VWS V14.01,2013-02-06 01:14:00,
2013-02-05 20:19:00,36.9,29.1,29.96,West,275,5.0,11.0,73,0.00,,---,0.00,VWS V14.01,2013-02-06 01:19:00,
2013-02-05 20:24:00,36.9,29.1,29.96,WNW,282,7.0,11.0,73,0.00,,---,0.00,VWS V14.01,2013-02-06 01:24:00,
2013-02-05 20:29:00,37.0,28.8,29.96,WNW,285,3.0,11.0,72,0.00,,---,0.00,VWS V14.01,2013-02-06 01:29:00,
2013-02-05 20:30:00,37.0,28.8,29.96,West,270,6.0,11.0,72,0.00,,---,0.00,VWS V14.01,2013-02-06 01:30:00,
2013-02-05 20:34:00,37.0,28.8,29.96,West,275,6.0,7.0,72,0.00,,---,0.00,VWS V14.01,2013-02-06 01:34:00,
2013-02-05 20:39:00,37.2,29.0,29.96,WNW,287,3.0,9.0,72,0.00,,---,0.00,VWS V14.01,2013-02-06 01:39:00,
2013-02-05 20:45:00,37.0,28.8,29.97,WNW,284,6.0,9.0,72,0.00,,---,0.00,VWS V14.01,2013-02-06 01:45:00,
2013-02-05 20:50:00,37.0,28.8,29.97,WNW,284,6.0,9.0,72,0.00,,---,0.00,VWS V14.01,2013-02-06 01:50:00,
2013-02-05 20:55:00,37.0,29.2,29.97,WNW,285,6.0,9.0,73,0.00,,---,0.00,VWS V14.01,2013-02-06 01:55:00,
2013-02-05 21:00:00,37.2,29.0,29.97,West,281,6.0,9.0,72,0.00,,---,0.00,VWS V14.01,2013-02-06 02:00:00,
2013-02-05 21:05:00,37.3,29.1,29.97,West,279,7.0,11.0,72,0.00,,---,0.00,VWS V14.01,2013-02-06 02:05:00,
2013-02-05 21:10:00,37.5,29.3,29.97,West,277,7.0,11.0,72,0.00,,---,0.00,VWS V14.01,2013-02-06 02:10:00,
2013-02-05 21:15:00,37.5,29.0,29.97,West,275,6.0,11.0,71,0.00,,---,0.00,VWS V14.01,2013-02-06 02:15:00,
2013-02-05 21:20:00,37.5,29.0,29.98,WNW,282,5.0,11.0,71,0.00,,---,0.00,VWS V14.01,2013-02-06 02:20:00,
2013-02-05 21:25:00,37.5,29.3,29.98,WNW,286,5.0,11.0,72,0.00,,---,0.00,VWS V14.01,2013-02-06 02:25:00,
2013-02-05 21:30:00,37.3,29.1,29.98,WNW,291,6.0,11.0,72,0.00,,---,0.00,VWS V14.01,2013-02-06 02:30:00,
2013-02-05 21:35:00,37.3,29.1,29.98,NW,304,6.0,7.0,72,0.00,,---,0.00,VWS V14.01,2013-02-06 02:35:00,
2013-02-05 21:40:00,37.3,29.1,29.99,NW,304,5.0,8.0,72,0.00,,---,0.00,VWS V14.01,2013-02-06 02:40:00,
2013-02-05 21:45:00,37.3,29.1,29.99,WNW,300,5.0,8.0,72,0.00,,---,0.00,VWS V14.01,2013-02-06 02:45:00,
2013-02-05 21:50:00,37.3,29.5,29.99,WNW,302,6.0,8.0,73,0.00,,---,0.00,VWS V14.01,2013-02-06 02:50:00,
2013-02-05 21:55:00,37.2,29.4,29.99,WNW,301,6.0,8.0,73,0.00,,---,0.00,VWS V14.01,2013-02-06 02:55:00,
2013-02-05 22:00:00,37.2,29.4,30.00,NW,311,5.0,9.0,73,0.00,,---,0.00,VWS V14.01,2013-02-06 03:00:00,
2013-02-05 22:05:00,37.2,29.4,30.00,WNW,295,4.0,9.0,73,0.00,,---,0.00,VWS V14.01,2013-02-06 03:05:00,
2013-02-05 22:10:00,37.2,29.4,30.00,WNW,300,8.0,11.0,73,0.00,,---,0.00,VWS V14.01,2013-02-06 03:10:00,
2013-02-05 22:15:00,37.2,29.4,30.00,NW,309,7.0,11.0,73,0.00,,---,0.00,VWS V14.01,2013-02-06 03:15:00,
2013-02-05 22:20:00,37.2,29.4,30.00,WNW,296,6.0,11.0,73,0.00,,---,0.00,VWS V14.01,2013-02-06 03:20:00,
2013-02-05 22:25:00,37.0,29.5,30.00,NW,304,8.0,12.0,74,0.00,,---,0.00,VWS V14.01,2013-02-06 03:25:00,
2013-02-05 22:30:00,37.0,29.5,30.01,NW,311,8.0,12.0,74,0.00,,---,0.00,VWS V14.01,2013-02-06 03:30:00,
2013-02-05 22:35:00,37.0,29.5,30.01,NW,307,8.0,10.0,74,0.00,,---,0.00,VWS V14.01,2013-02-06 03:35:00,
2013-02-05 22:41:00,37.0,29.5,30.01,WNW,302,4.0,10.0,74,0.00,,---,0.00,VWS V14.01,2013-02-06 03:41:00,
2013-02-05 22:46:00,36.9,29.4,30.01,NW,304,8.0,10.0,74,0.00,,---,0.00,VWS V14.01,2013-02-06 03:46:00,
2013-02-05 22:51:00,36.9,29.4,30.02,NW,306,7.0,10.0,74,0.00,,---,0.00,VWS V14.01,2013-02-06 03:51:00,
2013-02-05 22:56:00,36.8,29.3,30.02,NW,315,8.0,15.0,74,0.00,,---,0.00,VWS V14.01,2013-02-06 03:56:00,
2013-02-05 23:00:00,36.8,29.3,30.02,NW,315,6.0,15.0,74,0.00,,---,0.00,VWS V14.01,2013-02-06 04:00:00,
2013-02-05 23:01:00,36.8,29.3,30.02,NW,326,6.0,6.0,74,0.00,,---,0.00,VWS V14.01,2013-02-06 04:01:00,
2013-02-05 23:06:00,36.6,29.1,30.02,NW,309,7.0,11.0,74,0.00,,---,0.00,VWS V14.01,2013-02-06 04:06:00,
2013-02-05 23:11:00,36.6,29.1,30.02,WNW,298,6.0,17.0,74,0.00,,---,0.00,VWS V14.01,2013-02-06 04:11:00,
2013-02-05 23:16:00,36.6,28.8,30.02,NW,313,12.0,17.0,73,0.00,,---,0.00,VWS V14.01,2013-02-06 04:16:00,
2013-02-05 23:21:00,36.5,28.7,30.03,NNW,328,7.0,17.0,73,0.00,,---,0.00,VWS V14.01,2013-02-06 04:21:00,
2013-02-05 23:26:00,36.5,28.4,30.03,WNW,300,13.0,17.0,72,0.00,,---,0.00,VWS V14.01,2013-02-06 04:26:00,
2013-02-05 23:30:00,36.6,28.4,30.03,NW,315,8.0,17.0,72,0.00,,---,0.00,VWS V14.01,2013-02-06 04:30:00,
2013-02-05 23:31:00,36.6,28.4,30.03,WNW,302,8.0,8.0,72,0.00,,---,0.00,VWS V14.01,2013-02-06 04:31:00,
2013-02-05 23:36:00,36.5,28.4,30.03,NW,321,4.0,14.0,72,0.00,,---,0.00,VWS V14.01,2013-02-06 04:36:00,
2013-02-05 23:41:00,36.5,28.4,30.03,NW,305,7.0,14.0,72,0.00,,---,0.00,VWS V14.01,2013-02-06 04:41:00,
2013-02-05 23:46:00,36.5,28.4,30.03,NW,308,9.0,14.0,72,0.00,,---,0.00,VWS V14.01,2013-02-06 04:46:00,
2013-02-05 23:51:00,36.3,28.1,30.03,WNW,290,7.0,14.0,72,0.00,,---,0.00,VWS V14.01,2013-02-06 04:51:00,
2013-02-05 23:56:00,36.2,28.4,30.04,NW,313,7.0,14.0,73,0.00,,---,0.00,VWS V14.01,2013-02-06 04:56:00,